[[{"header":{"parameterUnit":"m.s-1","parameterCategory":1,"la1":30.2991,"la2":30.254,"lo1":-89.0895,"lo2":-89.0444,"dy":0.0017,"dx":0.0017,"nx":28,"ny":28,"refTime":"2024-10-19T21:00:00:Z","depth":0,"parameterNumber":2,"parameterNumberName":"U-component_of_WINDS"},"data":[0,0,0,0,0,0,0,0,0,0,0,0,0,0,0,0,0,0,0,0,0,0,0,0,0,0,0,0,0,0,0,0,0,0,0,0,0,0,0,0,0,0,0,0,0,0,0,0,0,0,0,0,0,0,0,0,0,0,-3.6501,-3.6502,0,-3.6537,-3.6538,-3.6538,-3.6469,-3.6466,-3.6464,-3.6462,-3.6499,-3.6502,-3.6505,0,0,0,0,0,0,0,0,0,0,0,0,0,-3.6372,-3.6375,-3.6501,-3.6502,-3.6502,-3.6537,-3.6538,-3.6538,-3.6469,-3.6466,-3.6463,-3.6461,-3.6498,-3.6502,-3.6506,0,0,0,0,0,0,0,0,0,0,0,0,0,-3.642,-3.6376,-3.6501,-3.6472,-3.6469,-3.6537,-3.6538,-3.6539,-3.647,-3.6466,-3.6463,-3.6459,-3.6497,-3.6501,-3.6506,-3.6604,0,0,-3.652,-3.6523,0,0,0,0,0,0,0,0,-3.6418,-3.6425,-3.6476,-3.6474,-3.6471,-3.6495,-3.6506,-3.6561,-3.647,-3.647,-3.6462,-3.6458,-3.6501,-3.6505,-3.6519,-3.6606,-3.6608,-3.6521,-3.6524,-3.6526,-3.6527,0,0,0,0,0,0,0,-3.6415,-3.6423,-3.6516,-3.6476,-3.6474,-3.6457,-3.646,-3.6516,-3.6504,-3.6469,-3.6464,-3.647,-3.6499,-3.6515,-3.6519,-3.6608,-3.6521,-3.6525,-3.6528,-3.653,-3.6779,-3.6782,0,0,0,0,0,0,-3.6415,-3.6421,-3.6514,-3.6517,-3.6436,-3.6462,-3.6465,-3.6491,-3.6503,-3.6502,-3.6473,-3.6466,-3.6508,-3.6514,-3.6521,-3.6637,-3.6526,-3.653,-3.6533,-3.6775,-3.678,-3.6784,0,0,0,0,0,0,-3.6412,-3.6424,-3.6513,-3.6468,-3.6478,-3.6468,-3.6497,-3.6493,-3.6509,-3.6506,-3.6503,-3.6491,-3.6506,-3.6514,-3.6584,-3.6638,-3.6532,-3.6537,-3.677,-3.6776,-3.6782,-3.6871,0,0,0,0,0,0,-3.6409,-3.6423,-3.646,-3.6469,-3.648,-3.6576,-3.65,-3.6497,-3.6518,-3.651,-3.6522,-3.6521,-3.6504,-3.6578,-3.6589,-3.6642,-3.654,-3.6766,-3.6773,-3.678,-3.6864,-3.6879,-3.6893,0,0,0,0,0,-3.6405,-3.6484,-3.6463,-3.6474,-3.6526,-3.6579,-3.6586,-3.6564,-3.6522,-3.656,-3.6557,-3.6521,-3.663,-3.6585,-3.6598,-3.6653,-3.6762,-3.6771,-3.6779,-3.6857,-3.6876,-3.6892,0,0,0,0,0,0,-3.6482,-3.6485,-3.6461,-3.6545,-3.6563,-3.6567,-3.6614,-3.6585,-3.6615,-3.6606,-3.6578,-3.6582,-3.6658,-3.6662,-3.6613,-3.6749,-3.6689,-3.67,-3.6744,-3.6762,-3.6777,-3.6774,-3.6544,0,0,0,0,0,-3.6509,-3.6552,-3.6551,-3.6626,-3.6636,-3.6624,-3.6646,-3.6628,-3.6645,-3.6652,-3.6654,-3.6672,-3.671,-3.6736,-3.6771,-3.6863,-3.6866,-3.6908,-3.6922,-3.6934,-3.6945,-3.6995,-3.7014,-3.6812,-3.6812,-3.6811,0,0,-3.6565,-3.6572,-3.66,-3.6642,-3.6653,-3.6698,-3.663,-3.6681,-3.6714,-3.6659,-3.6726,-3.6729,-3.6747,-3.6829,-3.6865,-3.6835,-3.7001,-3.6945,-3.6955,-3.6959,-3.7006,-3.7025,-3.7042,-3.6817,-3.6816,-3.6815,0,0,-3.669,-3.6699,-3.6763,-3.6776,-3.6794,-3.6785,-3.6801,-3.681,-3.681,-3.6877,-3.6837,-3.6876,-3.6942,-3.6957,-3.6974,-3.7106,-3.7074,-3.7118,-3.7195,-3.7244,-3.726,-3.7274,-3.7322,-3.734,-3.7128,-3.7128,-3.7128,0,-3.6758,-3.6824,-3.6799,-3.6853,-3.6873,-3.6825,-3.689,-3.6904,-3.6932,-3.6947,-3.6913,-3.6996,-3.7004,-3.709,-3.7123,-3.7137,-3.7154,-3.7117,-3.726,-3.7274,-3.7286,-3.7332,-3.735,-3.7133,-3.7133,-3.7132,-3.7132,0,-3.6907,-3.6954,-3.7003,-3.7032,-3.7058,-3.7117,-3.7101,-3.713,-3.7109,-3.7105,-3.7174,-3.7183,-3.7219,-3.7238,-3.7218,-3.7321,-3.7302,-3.7264,-3.7203,-3.7311,-3.7354,-3.7371,-3.7141,-3.7139,-3.7138,-3.7136,0,0,-3.7082,-3.7098,-3.7116,-3.7129,-3.7146,-3.7182,-3.7239,-3.7275,-3.7301,-3.7322,-3.737,-3.7427,-3.7393,-3.7411,-3.7393,-3.7436,-3.7542,-3.7393,-3.7393,-3.7422,-3.7657,-3.7687,-3.7707,-3.752,-3.7524,-3.7526,-3.7656,0,-3.7208,-3.7306,-3.7286,-3.7382,-3.7426,-3.7382,-3.7431,-3.7447,-3.7445,-3.7481,-3.7478,-3.752,-3.747,-3.7481,-3.7522,-3.7521,-3.7589,-3.7511,-3.7566,-3.7568,-3.7564,-3.7729,-3.776,-3.7882,-3.7673,-3.7675,-3.7677,0,-3.7367,-3.7395,-3.7497,-3.7507,-3.7525,-3.757,-3.7602,-3.7637,-3.7655,-3.7649,-3.7671,-3.7645,-3.7702,-3.764,-3.7719,-3.7666,-3.7687,-3.769,-3.7694,-3.7699,-3.763,-3.774,-3.792,-3.7939,-3.7703,-3.7701,-3.7699,0,-3.7487,-3.755,-3.7619,-3.7631,-3.7645,-3.7678,-3.7685,-3.7699,-3.7723,-3.775,-3.7765,-3.7799,-3.7818,-3.7845,-3.7829,-3.7785,-3.7912,-3.7848,-3.791,-3.7911,-3.7939,-3.7938,-3.8127,-3.7951,-3.7951,-3.7951,-3.795,0,-3.7629,-3.7693,-3.7673,-3.7715,-3.7786,-3.7762,-3.7832,-3.7834,-3.7848,-3.789,-3.7853,-3.7894,-3.787,-3.7909,-3.7897,-3.7965,-3.7973,-3.7972,-3.7968,-3.7976,-3.7976,-3.799,-3.7981,-3.7955,-3.7954,-3.7953,-3.7953,0,-3.7775,-3.7763,-3.7836,-3.7844,-3.7847,-3.7899,-3.7905,-3.7945,-3.794,-3.7994,-3.8006,-3.7997,-3.8041,-3.8028,-3.8075,-3.8067,-3.8154,-3.8139,-3.8148,-3.8145,-3.8208,-3.8203,-3.8414,-3.8441,-3.8247,-3.8249,-3.825,0,-3.7867,-3.7916,-3.7929,-3.7955,-3.7965,-3.8007,-3.8031,-3.8009,-3.8035,-3.8059,-3.8097,-3.8138,-3.8169,-3.8242,-3.8241,-3.8277,-3.8263,-3.8334,-3.8268,-3.8275,-3.8266,-3.8264,-3.8269,-3.8348,-3.835,-3.8352,-3.8353,0,-3.8033,-3.8025,-3.8061,-3.8095,-3.8125,-3.815,-3.8173,-3.8196,-3.8176,-3.8207,-3.8252,-3.8277,-3.8326,-3.8367,-3.8401,-3.8408,-3.8379,-3.8374,-3.8391,-3.84,-3.8404,-3.8404,-3.8186,-3.837,-3.8368,-3.8367,-3.8366,-3.8365,-3.8156,-3.8197,-3.8213,-3.8254,-3.8269,-3.8291,-3.8329,-3.8329,-3.8366,-3.8404,-3.8389,-3.8441,-3.8458,-3.85,-3.8512,-3.8552,-3.8525,-3.8549,-3.8555,-3.8562,-3.857,-3.8397,-3.8558,-3.8558,-3.8557,-3.8557,-3.8557,0,-3.8321,-3.8329,-3.8367,-3.84,-3.8433,-3.8401,-3.8424,-3.8454,-3.85,-3.8518,-3.8551,-3.8603,-3.8643,-3.8645,-3.8683,-3.8715,-3.8703,-3.8726,-3.8724,-3.8726,-3.8592,-3.8574,-3.8736,-3.8736,-3.8736,-3.8736,-3.8736,-3.8736,-3.8411,-3.8479,-3.8474,-3.855,-3.8557,-3.8608,-3.8624,-3.8644,-3.8659,-3.8719,-3.8753,-3.8753,-3.8765,-3.8804,-3.884,-3.8839,-3.8855,-3.8885,-3.8879,-3.8754,-3.8736,-3.8719,-3.8702,-3.8888,-3.8888,-3.901,-3.9012,-3.9013]},{"header":{"parameterUnit":"m.s-1","parameterCategory":1,"la1":30.2991,"la2":30.254,"lo1":-89.0895,"lo2":-89.0444,"dy":0.0017,"dx":0.0017,"nx":28,"ny":28,"refTime":"2024-10-19T21:00:00:Z","depth":0,"parameterNumber":3,"parameterNumberName":"V-component_of_WINDS"},"data":[0,0,0,0,0,0,0,0,0,0,0,0,0,0,0,0,0,0,0,0,0,0,0,0,0,0,0,0,0,0,0,0,0,0,0,0,0,0,0,0,0,0,0,0,0,0,0,0,0,0,0,0,0,0,0,0,0,0,-2.5098,-2.5098,0,-2.5075,-2.5075,-2.5074,-2.5022,-2.5021,-2.502,-2.5019,-2.4996,-2.4997,-2.4997,0,0,0,0,0,0,0,0,0,0,0,0,0,-2.5097,-2.5098,-2.5098,-2.5098,-2.5098,-2.5075,-2.5075,-2.5074,-2.5023,-2.5021,-2.502,-2.5019,-2.4996,-2.4997,-2.4997,0,0,0,0,0,0,0,0,0,0,0,0,0,-2.5088,-2.5098,-2.5098,-2.5069,-2.5066,-2.5075,-2.5075,-2.5074,-2.5023,-2.5021,-2.502,-2.5018,-2.4996,-2.4997,-2.4997,-2.5033,0,0,-2.4999,-2.4999,0,0,0,0,0,0,0,0,-2.5089,-2.5089,-2.5074,-2.5071,-2.5068,-2.505,-2.5066,-2.506,-2.5023,-2.5039,-2.5019,-2.5017,-2.5015,-2.5014,-2.5014,-2.5032,-2.5031,-2.4999,-2.4999,-2.5,-2.5,0,0,0,0,0,0,0,-2.509,-2.5089,-2.5089,-2.5073,-2.507,-2.5057,-2.5054,-2.5065,-2.5037,-2.5038,-2.5034,-2.5032,-2.5014,-2.5013,-2.5013,-2.5031,-2.4999,-2.4999,-2.5,-2.5,-2.5076,-2.5078,0,0,0,0,0,0,-2.5095,-2.509,-2.509,-2.5088,-2.5075,-2.5058,-2.5055,-2.5057,-2.5036,-2.5032,-2.5033,-2.5029,-2.5013,-2.5012,-2.5012,-2.5052,-2.5,-2.5,-2.5,-2.5075,-2.5077,-2.5078,0,0,0,0,0,0,-2.5095,-2.5095,-2.5091,-2.5088,-2.5087,-2.506,-2.5063,-2.5058,-2.5057,-2.5033,-2.5028,-2.5038,-2.5012,-2.5011,-2.5028,-2.505,-2.5,-2.5001,-2.5073,-2.5075,-2.5077,-2.5133,0,0,0,0,0,0,-2.5095,-2.5095,-2.5109,-2.5089,-2.5087,-2.5107,-2.5065,-2.5058,-2.5058,-2.5053,-2.5036,-2.5032,-2.501,-2.5027,-2.5028,-2.505,-2.5001,-2.507,-2.5074,-2.5077,-2.5129,-2.5137,-2.5144,0,0,0,0,0,-2.5095,-2.5126,-2.511,-2.511,-2.5103,-2.5109,-2.5108,-2.5082,-2.506,-2.5073,-2.5058,-2.5032,-2.5048,-2.5029,-2.503,-2.5053,-2.5069,-2.5073,-2.5076,-2.5125,-2.5135,-2.5144,0,0,0,0,0,0,-2.515,-2.5123,-2.5105,-2.513,-2.5122,-2.51,-2.5116,-2.5094,-2.5092,-2.5088,-2.5056,-2.5053,-2.5074,-2.5065,-2.5045,-2.5086,-2.5054,-2.5058,-2.5091,-2.51,-2.5107,-2.5109,-2.5002,0,0,0,0,0,-2.5164,-2.5171,-2.5147,-2.5172,-2.5168,-2.5143,-2.5145,-2.5126,-2.5116,-2.5113,-2.5098,-2.5091,-2.5094,-2.5096,-2.5098,-2.5127,-2.5122,-2.5143,-2.515,-2.5156,-2.516,-2.5175,-2.5183,-2.5091,-2.5091,-2.5091,0,0,-2.5195,-2.5181,-2.5188,-2.5182,-2.5174,-2.5182,-2.5141,-2.5151,-2.5156,-2.5114,-2.5129,-2.5119,-2.5108,-2.5131,-2.5141,-2.5124,-2.5185,-2.5161,-2.5166,-2.5167,-2.518,-2.5188,-2.5196,-2.5093,-2.5093,-2.5092,0,0,-2.5255,-2.5246,-2.5265,-2.5257,-2.5245,-2.5227,-2.5232,-2.5213,-2.5204,-2.5219,-2.5188,-2.5193,-2.5199,-2.5193,-2.519,-2.5247,-2.5223,-2.5248,-2.5287,-2.5301,-2.5309,-2.5315,-2.5335,-2.5343,-2.5252,-2.5252,-2.5252,0,-2.5296,-2.5306,-2.5277,-2.5289,-2.5287,-2.5249,-2.5268,-2.5262,-2.5251,-2.5251,-2.5233,-2.5239,-2.5229,-2.525,-2.5263,-2.5263,-2.5267,-2.525,-2.531,-2.5316,-2.5322,-2.534,-2.5348,-2.5255,-2.5255,-2.5255,-2.5254,0,-2.5355,-2.5363,-2.538,-2.537,-2.537,-2.5385,-2.5359,-2.5362,-2.5343,-2.5328,-2.5343,-2.5329,-2.5327,-2.533,-2.5312,-2.5348,-2.5339,-2.5316,-2.5283,-2.5334,-2.5351,-2.5358,-2.526,-2.5259,-2.5258,-2.5257,0,0,-2.545,-2.5423,-2.543,-2.5425,-2.5408,-2.5413,-2.5426,-2.5424,-2.5427,-2.5421,-2.5431,-2.5436,-2.5415,-2.5412,-2.5392,-2.5405,-2.545,-2.538,-2.5379,-2.5393,-2.5489,-2.5507,-2.5516,-2.5434,-2.5435,-2.5436,-2.549,0,-2.5507,-2.5528,-2.5502,-2.5529,-2.5535,-2.5499,-2.551,-2.5501,-2.5487,-2.549,-2.5474,-2.5479,-2.545,-2.5448,-2.5458,-2.5442,-2.5469,-2.5438,-2.5443,-2.5444,-2.5448,-2.5525,-2.5543,-2.5595,-2.5497,-2.5498,-2.5499,0,-2.5575,-2.5572,-2.5599,-2.558,-2.5581,-2.5592,-2.5587,-2.5591,-2.558,-2.5568,-2.5565,-2.5541,-2.5552,-2.552,-2.5536,-2.5515,-2.5516,-2.5508,-2.551,-2.5509,-2.5475,-2.5527,-2.5611,-2.5619,-2.5509,-2.5508,-2.5507,0,-2.5642,-2.5643,-2.566,-2.5656,-2.5634,-2.5643,-2.5634,-2.5621,-2.5621,-2.5616,-2.5616,-2.5613,-2.5612,-2.561,-2.5586,-2.5565,-2.5604,-2.5571,-2.5595,-2.5596,-2.5606,-2.5605,-2.5691,-2.5606,-2.5606,-2.5606,-2.5605,0,-2.5707,-2.5726,-2.5689,-2.5699,-2.5718,-2.5688,-2.5708,-2.5695,-2.5684,-2.5691,-2.5659,-2.5667,-2.5634,-2.5638,-2.5619,-2.5634,-2.5634,-2.5625,-2.562,-2.5628,-2.5629,-2.5628,-2.5624,-2.5608,-2.5607,-2.5607,-2.5606,0,-2.5785,-2.5761,-2.5776,-2.5754,-2.5749,-2.5764,-2.5745,-2.5753,-2.5736,-2.5745,-2.5746,-2.572,-2.5722,-2.5698,-2.5696,-2.5683,-2.5707,-2.5696,-2.5711,-2.5708,-2.5734,-2.5732,-2.5822,-2.5832,-2.5741,-2.5742,-2.5742,0,-2.5829,-2.5842,-2.582,-2.5822,-2.5815,-2.5819,-2.5819,-2.5789,-2.579,-2.5778,-2.5788,-2.5787,-2.5786,-2.5792,-2.5773,-2.5771,-2.5759,-2.5791,-2.5759,-2.5766,-2.5759,-2.5759,-2.576,-2.5798,-2.5799,-2.58,-2.5801,0,-2.5909,-2.5896,-2.5896,-2.5892,-2.5892,-2.5888,-2.5881,-2.5885,-2.5853,-2.5855,-2.5857,-2.5856,-2.5854,-2.5854,-2.5848,-2.5839,-2.5815,-2.5811,-2.5816,-2.5825,-2.5833,-2.5829,-2.573,-2.5809,-2.5808,-2.5807,-2.5807,-2.5807,-2.597,-2.598,-2.5966,-2.5967,-2.5959,-2.5954,-2.596,-2.5944,-2.5945,-2.5941,-2.5923,-2.5928,-2.5916,-2.5906,-2.5899,-2.5902,-2.5887,-2.5895,-2.5897,-2.5899,-2.5904,-2.5832,-2.5901,-2.5901,-2.59,-2.59,-2.59,0,-2.6049,-2.6038,-2.6039,-2.6031,-2.6031,-2.6008,-2.5999,-2.6001,-2.6006,-2.5996,-2.5995,-2.5997,-2.5997,-2.5978,-2.5975,-2.5982,-2.597,-2.5982,-2.5981,-2.5979,-2.5918,-2.5914,-2.5991,-2.5991,-2.5991,-2.5991,-2.5991,-2.5991,-2.609,-2.6104,-2.609,-2.61,-2.6089,-2.6094,-2.6091,-2.6085,-2.6077,-2.6081,-2.608,-2.6067,-2.6054,-2.605,-2.6048,-2.6043,-2.6043,-2.6059,-2.6049,-2.5993,-2.5984,-2.5975,-2.5971,-2.6059,-2.6059,-2.611,-2.6111,-2.6111]}]]